Terminal Aerodrome Forecast
Issued by NWS Birmingham, AL

Home | Current Version | Previous Version | Text Only | Print | Product List | Glossary On
Versions: 1 2 3 4 5 6 7 8 9 10 11 12 13
000
FTUS44 KBMX 290520
TAFBHM
TAF
KBHM 290520Z 2906/3006 VRB03KT P6SM SCT250
     FM291200 06002KT 5SM BR FEW250
     FM291500 30003KT P6SM FEW250=

USA.gov is the U.S. government's official web portal to all federal, state and local government web resources and services.